Glover Park, Texas, United States
Lat: 32.76N, Lon: 96.71W
Wx Zone: TXZ119
Local Info
Past Weather Observations for Today

NOTE: This archive is for the closest National Weather Service station to Glover Park. Information may differ from the station used for current weather conditions.

Click here for Long-term Archive

Time Weather Temperature Dewpoint Humidity Pressure Winds Precip Visibility
10:50
Partly Cloudy
82°F / 28°C 73°F / 23°C 74% 29.95 in
(1014 mb)
NE 5.8 mph
(NE 9 kph)
- 10SM
09:55
Overcast
79°F / 26°C 73°F / 23°C 84% 29.95 in
(1014 mb)
NE 3.5 mph
(NE 6 kph)
- 10SM
08:50
Fair
75°F / 24°C 73°F / 23°C 94% 29.95 in
(1014 mb)
Calm - 10SM
07:50
Overcast
Fog And Mist
73°F / 23°C 72°F / 22°C 94% 29.95 in
(1014 mb)
Calm - 2SM
06:55
Overcast
73°F / 23°C 72°F / 22°C 94% 29.92 in
(1013 mb)
Calm - 10SM
05:55
Clear
72°F / 22°C 72°F / 22°C 100% 29.89 in
(1012 mb)
S 4.6 mph
(S 7 kph)
- 10SM
04:35
Overcast
73°F / 23°C 72°F / 22°C 94% 29.89 in
(1012 mb)
Calm - 10SM
04:15
Overcast
73°F / 23°C 72°F / 22°C 94% 29.92 in
(1013 mb)
Calm - 10SM
03:55
Mostly Cloudy
73°F / 23°C 72°F / 22°C 94% 29.92 in
(1013 mb)
Calm - 10SM
03:35
Mostly Cloudy
72°F / 22°C 72°F / 22°C 100% 29.89 in
(1012 mb)
NE 3.5 mph
(NE 6 kph)
- 10SM
03:15
Mostly Cloudy
72°F / 22°C 72°F / 22°C 100% 29.89 in
(1012 mb)
Calm - 10SM
02:55
Mostly Cloudy
73°F / 23°C 72°F / 22°C 94% 29.92 in
(1013 mb)
Calm - 10SM
02:35
Clear
73°F / 23°C 72°F / 22°C 94% 29.92 in
(1013 mb)
Calm - 10SM
02:15
Clear
73°F / 23°C 72°F / 22°C 94% 29.92 in
(1013 mb)
SSE 3.5 mph
(SSE 6 kph)
- 10SM
01:55
Clear
73°F / 23°C 72°F / 22°C 94% 29.92 in
(1013 mb)
S 3.5 mph
(S 6 kph)
- 10SM
01:35
Clear
73°F / 23°C 72°F / 22°C 94% 29.92 in
(1013 mb)
Calm - 10SM
01:15
Clear
75°F / 24°C 72°F / 22°C 89% 29.92 in
(1013 mb)
Calm - 10SM
00:55
Clear
75°F / 24°C 72°F / 22°C 89% 29.92 in
(1013 mb)
S 3.5 mph
(S 6 kph)
- 10SM
00:35
Clear
75°F / 24°C 72°F / 22°C 89% 29.92 in
(1013 mb)
S 4.6 mph
(S 7 kph)
- 10SM
00:15
Clear
77°F / 25°C 72°F / 22°C 83% 29.92 in
(1013 mb)
S 4.6 mph
(S 7 kph)
- 10SM
Time Weather Temperature Dewpoint Humidity Pressure Winds Precip Visibility


Weather for websites

WeatherForYou.com, LLC is not responsible for any damages or problems caused by this service. Current weather conditions are obtained from the closest station including government and personal stations which may have varying degrees of accuracy. Weather forecasts are derived from the NOAA NDFD. Like all things, this site belongs to Jesus Christ... He just trusts me to maintain it. If you have any questions or comments email webmaster@weatherforyou.com

Copyright © 2014, WeatherForYou.com LLC. All rights reserved.